Temp
10 10 10 11 11 11 10 10 10 10 10 9 9 9 8 8 8 8 8 8 8 8 7 7 7 7 7 6 6 6 6 6 6 6 5 5 5 5 5 5 5 5
10 10 10 11 11 11 11 10 10 10 10 9 9 9 8 8 8 8 8 7 7 7 6 6 6 6 6 6 6 6 6 6 5 5 5 5 5 5 4 4 4 4
10 10 10 10 10 11 11 10 10 10 9 9 9 8 8 8 8 8 7 7 6 6 6 6 6 5 5 5 5 5 5 5 5 5 5 5 5 4 4 4 4 4
10 10 10 10 10 10 10 10 10 9 9 9 8 8 8 8 8 7 7 6 6 6 5 5 5 5 5 5 5 5 5 5 5 5 5 4 4 4 4 4 4 4
10 10 10 10 10 10 10 10 9 9 9 8 8 8 8 8 7 7 6 6 6 5 5 5 5 5 5 5 5 5 5 5 4 4 4 4 4 4 4 4 4 4
10 10 10 10 9 9 9 9 9 9 8 8 8 8 8 7 7 6 6 6 5 5 5 5 5 5 5 5 4 4 4 4 4 4 4 4 4 4 4 4 4 4
10 10 10 10 9 9 9 9 9 9 9 9 8 8 7 7 6 6 6 5 5 5 5 5 5 5 4 4 4 4 4 4 4 4 4 4 4 4 4 4 4 4
10 10 10 10 9 9 9 9 9 8 8 8 8 8 7 7 6 6 5 5 5 5 5 5 5 5 4 4 4 4 4 4 4 4 4 4 4 4 4 3 4 4
10 10 10 10 9 9 9 9 9 8 7 7 7 7 7 6 6 6 6 5 5 5 5 5 5 5 5 4 4 4 4 4 4 4 4 4 4 4 3 3 3 4
9 10 10 10 9 9 9 9 8 7 6 6 6 6 6 6 6 6 6 5 5 5 5 5 5 5 5 5 4 4 4 4 3 3 3 3 3 3 3 3 3 4
9 9 9 9 9 9 9 8 8 7 6 6 6 6 6 6 6 6 5 5 5 5 5 5 4 5 5 4 4 4 4 4 3 3 3 3 3 3 3 3 3 4
9 9 9 9 9 9 9 8 7 7 6 6 6 6 6 6 6 5 5 5 5 5 5 4 4 4 4 4 4 4 4 3 3 3 4 3 3 3 3 4 4 4
9 9 9 9 9 9 8 8 7 6 6 6 6 6 6 6 5 5 5 5 5 5 5 4 4 4 4 4 4 4 4 3 3 3 3 3 3 3 3 3 4 3
9 9 9 8 8 8 8 7 7 6 6 6 6 6 6 6 6 5 5 5 5 5 4 4 4 4 4 4 4 4 4 4 4 3 3 3 3 3 3 3 3 3
9 9 9 8 8 8 7 7 6 6 6 6 6 6 6 6 6 5 5 5 5 5 4 4 4 4 4 4 4 4 4 4 4 3 3 3 3 3 3 3 3 3
9 9 8 8 8 7 7 6 6 6 6 6 6 6 5 5 5 5 5 5 5 4 4 4 4 4 4 3 3 3 3 3 3 3 3 3 3 3 3 3 3 3
9 8 8 8 8 7 6 6 6 6 6 6 6 6 5 5 5 5 5 5 5 4 4 4 4 4 4 3 3 3 3 3 3 3 3 3 3 3 3 3 3 3
8 8 8 8 7 7 6 6 6 6 6 6 6 5 5 5 5 5 5 5 5 4 4 4 4 4 4 4 3 3 3 3 3 3 3 3 3 3 3 3 3 2
8 8 8 8 7 6 6 6 6 6 6 6 5 5 5 5 5 5 5 5 4 4 4 4 4 4 4 3 3 3 3 3 3 2 2 3 3 2 2 3 2 2
8 8 7 7 7 6 6 6 6 6 6 5 5 5 5 5 5 5 5 4 4 4 4 4 4 4 4 3 3 3 3 3 3 2 2 2 2 2 2 2 2 2
7 7 7 7 7 6 6 6 6 6 6 5 5 5 5 5 4 4 4 4 4 4 4 4 3 3 4 3 3 3 3 3 3 2 2 2 2 2 2 2 2 2
7 7 7 7 7 7 6 6 6 5 5 5 5 5 5 4 4 4 4 4 4 4 4 3 3 3 3 3 3 3 3 3 3 2 2 2 2 2 2 2 2 2
7 7 7 7 7 6 6 6 5 5 5 5 5 5 4 4 4 4 4 4 4 4 3 3 3 3 3 3 3 3 2 3 2 2 2 2 2 2 2 2 2 2
7 7 7 7 7 6 6 5 5 5 5 5 4 4 4 4 4 4 4 4 3 3 3 3 3 3 3 3 3 2 2 3 2 2 2 2 2 2 2 2 2 2
7 7 7 7 6 6 6 5 5 5 5 5 4 4 4 4 4 3 3 3 3 3 3 3 3 2 2 3 3 2 2 2 2 2 2 2 2 2 2 2 2 2
7 7 7 7 6 6 6 5 5 5 5 4 4 4 4 3 3 3 3 3 3 3 3 3 2 2 2 2 2 2 2 2 2 2 2 2 2 2 2 2 2 2
Height
3186 3185 3183 3182 3180 3178 3177 3175 3174 3173 3172 3171 3170 3169 3168 3168 3166 3165 3165 3164 3163 3162 3161 3160 3159 3159 3157 3156 3155 3154 3153 3152 3151 3150 3149 3148 3147 3147 3146 3145 3144 3143
3185 3184 3182 3181 3179 3178 3176 3174 3173 3171 3170 3169 3168 3168 3167 3166 3165 3164 3163 3162 3161 3160 3159 3158 3157 3156 3155 3154 3154 3153 3152 3150 3149 3148 3147 3146 3145 3144 3143 3143 3142 3141
3184 3182 3181 3179 3178 3176 3174 3173 3171 3170 3169 3168 3167 3166 3165 3164 3163 3162 3161 3160 3159 3158 3157 3156 3155 3154 3154 3153 3152 3151 3150 3149 3148 3146 3146 3144 3143 3142 3141 3140 3139 3138
3183 3181 3179 3177 3176 3174 3173 3171 3170 3168 3167 3166 3165 3164 3163 3162 3161 3160 3159 3158 3157 3156 3155 3154 3153 3152 3151 3151 3150 3149 3148 3147 3145 3144 3143 3142 3141 3140 3139 3138 3136 3135
3181 3179 3178 3176 3175 3173 3171 3169 3168 3166 3165 3164 3163 3162 3161 3160 3158 3157 3156 3156 3155 3154 3153 3152 3151 3150 3149 3148 3148 3147 3146 3144 3143 3142 3141 3140 3138 3137 3136 3135 3134 3132
3179 3178 3176 3175 3173 3171 3169 3168 3166 3164 3163 3162 3161 3160 3159 3157 3156 3155 3154 3154 3153 3152 3151 3150 3149 3148 3146 3145 3145 3144 3143 3142 3141 3140 3139 3138 3136 3135 3133 3132 3131 3130
3178 3177 3175 3174 3172 3170 3168 3166 3164 3162 3161 3160 3159 3158 3157 3156 3154 3153 3152 3152 3151 3150 3149 3148 3146 3145 3144 3143 3142 3141 3140 3140 3139 3138 3137 3136 3134 3133 3131 3130 3128 3126
3176 3175 3173 3172 3170 3168 3166 3163 3161 3158 3156 3156 3156 3155 3154 3153 3152 3151 3150 3149 3149 3148 3146 3145 3144 3143 3142 3140 3139 3139 3138 3137 3136 3135 3134 3133 3132 3130 3129 3127 3125 3123
3174 3172 3171 3169 3168 3166 3164 3161 3159 3155 3152 3151 3152 3151 3151 3150 3149 3149 3149 3147 3146 3145 3144 3143 3142 3140 3140 3139 3137 3137 3136 3135 3134 3133 3131 3130 3129 3127 3126 3124 3122 3120
3172 3170 3169 3167 3165 3163 3161 3159 3157 3154 3151 3150 3150 3150 3149 3149 3148 3147 3146 3144 3144 3143 3141 3140 3139 3138 3137 3136 3135 3134 3133 3133 3132 3130 3129 3127 3126 3124 3122 3121 3118 3117
3170 3169 3167 3165 3164 3162 3159 3157 3155 3154 3153 3151 3150 3149 3148 3147 3146 3145 3143 3142 3142 3140 3139 3138 3136 3135 3135 3134 3133 3131 3131 3130 3129 3128 3126 3124 3123 3121 3120 3118 3115 3113
3168 3167 3165 3163 3161 3160 3158 3156 3155 3154 3152 3150 3149 3147 3146 3145 3144 3143 3142 3141 3140 3138 3137 3136 3134 3133 3132 3131 3130 3129 3128 3127 3126 3125 3123 3121 3119 3118 3116 3115 3113 3111
3163 3163 3162 3160 3159 3157 3155 3153 3152 3151 3150 3148 3147 3145 3144 3143 3142 3142 3140 3139 3138 3137 3135 3134 3132 3130 3130 3129 3127 3126 3125 3124 3123 3122 3121 3119 3117 3115 3114 3112 3110 3108
3160 3159 3158 3157 3156 3154 3152 3150 3149 3149 3148 3147 3146 3145 3143 3142 3141 3140 3138 3137 3136 3134 3133 3131 3130 3128 3127 3126 3125 3123 3122 3121 3120 3118 3117 3115 3114 3112 3111 3109 3107 3106
3158 3157 3155 3154 3153 3152 3150 3148 3147 3146 3145 3144 3143 3142 3141 3140 3139 3137 3136 3135 3133 3132 3130 3129 3128 3126 3125 3123 3122 3120 3119 3118 3116 3115 3113 3111 3110 3109 3107 3106 3104 3102
3156 3155 3153 3152 3151 3149 3147 3146 3145 3144 3143 3142 3141 3140 3139 3137 3137 3135 3134 3132 3131 3129 3128 3126 3125 3124 3123 3121 3119 3118 3116 3115 3113 3112 3110 3108 3106 3105 3104 3103 3101 3099
3153 3152 3151 3149 3148 3146 3145 3143 3142 3141 3140 3139 3138 3137 3137 3136 3134 3133 3131 3130 3128 3126 3125 3123 3122 3122 3120 3118 3117 3115 3113 3112 3110 3109 3107 3105 3103 3102 3100 3099 3098 3096
3149 3148 3147 3146 3145 3143 3142 3141 3140 3139 3139 3138 3137 3135 3134 3133 3132 3130 3128 3127 3125 3124 3122 3121 3119 3119 3117 3116 3114 3112 3110 3108 3107 3105 3104 3102 3101 3099 3097 3096 3094 3093
3146 3145 3144 3143 3141 3140 3140 3139 3138 3138 3137 3136 3135 3133 3132 3131 3129 3128 3126 3124 3123 3121 3120 3118 3116 3115 3115 3113 3111 3109 3107 3105 3103 3102 3101 3099 3098 3096 3095 3093 3091 3089
3142 3142 3141 3140 3139 3138 3137 3137 3136 3135 3135 3134 3133 3131 3129 3128 3126 3125 3123 3121 3120 3119 3117 3116 3114 3112 3111 3109 3107 3106 3104 3102 3100 3098 3097 3096 3095 3093 3092 3091 3088 3086
3138 3138 3137 3136 3136 3135 3135 3134 3133 3133 3132 3132 3131 3129 3128 3126 3124 3123 3121 3119 3117 3115 3114 3113 3111 3109 3108 3106 3104 3102 3100 3098 3097 3095 3094 3093 3092 3091 3089 3087 3085 3083
3135 3134 3134 3134 3134 3133 3133 3131 3130 3130 3129 3129 3128 3126 3125 3124 3122 3120 3118 3116 3114 3112 3110 3109 3108 3106 3105 3103 3101 3098 3096 3095 3094 3093 3091 3090 3089 3088 3086 3084 3081 3080
3131 3131 3131 3131 3131 3131 3130 3129 3128 3127 3126 3126 3124 3123 3122 3120 3118 3117 3115 3113 3112 3110 3108 3106 3105 3103 3101 3100 3098 3095 3093 3092 3090 3089 3089 3088 3087 3085 3083 3081 3079 3076
3129 3128 3128 3128 3128 3127 3127 3126 3125 3124 3123 3123 3121 3120 3119 3117 3115 3114 3112 3110 3109 3107 3105 3103 3101 3099 3098 3096 3095 3093 3090 3089 3088 3087 3086 3085 3084 3082 3080 3078 3076 3073
3127 3127 3126 3126 3125 3124 3124 3123 3122 3121 3120 3120 3119 3118 3116 3115 3113 3111 3108 3106 3105 3104 3102 3100 3098 3097 3095 3093 3091 3090 3087 3086 3085 3084 3083 3082 3081 3079 3078 3076 3074 3071
3126 3125 3124 3123 3122 3121 3121 3120 3119 3118 3117 3117 3116 3115 3113 3112 3110 3108 3106 3104 3103 3101 3098 3096 3095 3094 3093 3090 3088 3087 3084 3083 3082 3081 3080 3079 3078 3076 3075 3073 3071 3068
Wind_Speed
28 29 28 26 25 24 23 22 22 21 21 21 21 20 21 20 20 19 19 18 17 16 16 16 16 16 16 16 16 17 17 17 17 17 15 15 16 17 18 20 22 23
28 29 29 28 26 25 25 24 24 23 23 22 22 21 21 20 20 19 19 18 18 18 18 18 17 16 15 15 16 16 17 17 18 17 16 16 18 18 19 20 21 23
28 29 30 29 29 28 28 27 26 25 24 23 22 22 21 21 20 20 19 19 19 19 19 18 17 16 16 16 16 16 17 18 18 18 17 18 19 19 20 21 21 23
27 29 31 32 32 31 31 30 29 27 25 24 22 22 22 21 21 20 19 19 19 19 19 18 17 17 17 17 17 17 17 18 19 19 19 20 21 21 21 22 23 24
26 29 31 33 34 34 32 31 30 28 27 25 24 22 21 21 20 19 19 19 19 19 19 19 19 19 19 19 18 18 17 18 20 21 22 22 24 24 25 25 25 26
26 28 31 34 35 35 34 32 31 29 28 26 24 22 20 20 20 19 19 18 18 19 19 20 20 21 21 20 19 19 19 19 19 21 22 23 25 26 27 28 28 28
25 27 30 33 35 36 35 34 32 30 29 27 24 23 21 19 19 19 19 19 18 19 20 20 20 20 21 21 20 20 21 20 19 21 23 23 24 26 28 29 30 30
25 26 29 32 35 36 36 35 34 33 32 29 26 25 23 21 20 20 20 20 21 22 22 21 20 20 20 21 21 21 22 22 21 22 24 25 25 28 29 30 31 31
27 27 29 32 35 36 36 35 34 33 32 31 28 26 25 23 22 22 22 23 24 24 24 23 21 20 21 22 23 23 23 24 23 23 25 26 27 30 30 30 31 32
27 28 28 32 35 36 36 36 33 30 29 29 28 25 23 23 24 25 26 26 26 26 25 23 22 21 21 22 23 24 25 25 25 25 26 27 29 30 31 31 31 32
27 28 28 31 34 35 35 34 30 26 24 25 25 24 24 24 24 25 26 27 28 26 24 23 23 23 22 21 22 23 24 25 26 26 27 28 29 30 30 30 30 31
28 28 28 31 33 34 34 31 26 23 22 24 25 25 25 25 25 25 25 27 28 27 25 23 23 24 22 21 22 23 23 24 25 26 26 26 28 29 29 28 29 31
29 29 29 30 32 33 32 29 25 22 22 23 23 23 24 24 25 25 26 27 28 27 26 25 24 24 24 22 23 24 25 25 25 25 24 25 27 28 28 28 29 30
30 30 30 30 32 32 30 26 23 22 21 20 20 21 22 23 24 25 26 27 28 27 26 25 24 25 25 25 24 25 27 27 27 26 25 25 27 28 28 29 30 29
29 30 30 31 32 30 27 23 22 21 21 21 21 21 22 23 24 25 26 27 28 27 26 26 25 26 26 26 27 27 28 28 28 29 29 29 29 29 28 28 29 29
28 28 29 30 30 27 24 22 21 21 21 21 21 21 23 24 25 26 27 27 27 27 26 26 26 26 26 27 28 29 29 30 30 30 30 31 31 31 30 29 28 29
27 27 28 28 26 23 21 20 20 21 21 21 21 22 23 25 27 28 29 28 27 26 25 26 26 26 25 26 27 27 29 31 31 30 30 30 31 32 31 30 28 28
26 27 27 26 24 21 19 19 20 21 21 21 22 23 24 26 29 31 31 30 27 25 25 27 28 27 27 27 28 28 29 29 30 30 30 30 31 32 32 30 29 28
24 25 25 24 22 19 18 19 20 21 21 22 23 24 26 28 30 32 32 31 28 27 27 28 30 30 29 29 30 31 29 29 29 29 29 31 31 32 32 30 28 27
23 24 24 22 19 18 18 20 21 22 22 23 24 25 26 29 31 32 33 32 30 29 28 28 30 30 31 31 32 31 30 29 28 28 28 30 31 31 31 30 29 28
22 23 22 18 16 17 19 21 23 24 24 25 26 26 26 29 31 33 33 33 32 32 29 28 29 30 32 33 33 32 31 30 28 27 28 29 29 30 30 30 30 29
23 23 20 16 16 19 21 23 25 26 27 29 31 30 28 29 32 33 33 33 32 32 31 29 29 30 32 33 33 32 32 31 29 27 27 28 28 29 29 30 30 28
23 22 20 19 21 23 23 24 27 29 31 33 34 32 30 32 34 34 34 33 32 32 32 31 30 31 33 34 33 31 31 30 29 27 27 27 27 27 28 29 29 28
23 22 23 25 26 26 25 27 29 31 33 34 33 30 30 33 34 34 35 35 33 32 32 32 31 32 34 35 33 31 31 30 29 28 27 27 27 26 26 26 27 27
22 24 27 28 29 29 28 30 32 34 36 36 33 30 31 33 34 35 36 36 35 34 33 32 31 32 33 34 32 30 30 30 29 28 27 26 26 25 25 25 26 27
23 26 29 30 30 31 31 33 35 36 37 37 35 32 32 34 35 35 36 36 34 35 34 31 29 30 31 32 31 30 29 29 28 27 26 24 24 24 24 24 24 25
Wind_Direction
349 350 349 346 344 340 336 333 330 327 324 324 324 322 319 317 315 315 314 312 311 311 309 309 309 308 306 303 302 303 304 305 306 306 306 304 299 295 292 291 291 291
345 348 349 348 345 342 339 334 331 328 326 325 324 322 320 318 318 317 316 315 314 314 313 311 310 309 306 303 302 303 304 306 307 307 307 304 300 298 296 295 294 294
341 344 346 347 345 343 341 338 334 330 326 325 323 321 320 319 320 319 318 318 316 316 316 313 310 308 305 303 301 301 303 306 308 309 309 306 303 302 300 300 300 299
335 339 342 343 343 342 341 339 336 331 327 326 324 321 321 320 320 320 319 319 317 316 315 313 308 304 301 300 299 300 303 306 309 309 307 306 306 304 303 304 304 303
329 333 336 338 340 339 340 339 336 332 328 327 325 322 320 321 321 321 320 319 317 316 315 312 309 304 300 297 298 301 303 306 308 308 306 306 306 305 304 304 303 301
323 328 331 333 336 336 336 336 334 331 327 326 326 325 324 325 325 324 324 321 319 318 316 313 309 306 303 300 300 300 300 303 305 305 304 304 304 303 303 303 302 300
315 323 326 328 331 332 332 332 330 326 324 326 329 331 332 330 327 329 329 326 324 323 320 314 309 306 304 301 299 297 298 299 300 301 301 300 299 300 301 302 301 301
310 317 322 324 327 330 330 329 328 325 325 329 334 336 337 337 335 333 329 327 327 325 322 317 309 304 302 297 295 296 298 300 300 299 299 298 298 299 301 301 301 301
308 314 319 322 324 327 327 327 328 328 329 333 340 342 341 340 335 329 325 326 327 325 322 319 311 305 302 298 296 295 295 298 300 300 300 301 300 299 300 301 301 301
306 312 316 319 322 325 325 326 328 331 332 334 337 339 338 334 329 326 327 327 327 326 323 319 313 307 304 301 299 297 294 294 297 298 299 300 299 299 300 301 300 302
302 308 312 316 320 323 323 325 328 330 331 329 330 332 332 330 328 327 327 325 325 326 323 317 312 308 307 304 301 299 296 295 296 297 298 298 297 298 300 301 302 305
300 306 311 315 318 320 321 322 324 325 326 327 329 332 330 328 327 324 322 321 323 324 321 317 311 309 309 306 301 298 296 294 295 295 296 295 294 296 300 302 303 307
301 306 311 315 317 319 318 319 320 322 326 329 330 329 326 324 323 321 321 320 320 320 319 317 313 309 308 306 301 298 297 295 295 296 294 291 291 295 299 300 304 308
300 306 312 316 317 316 315 315 316 319 324 328 328 326 324 322 321 321 321 320 319 318 316 314 311 308 306 304 301 299 299 299 299 299 296 293 295 298 300 301 305 309
298 306 311 314 315 313 311 310 312 316 323 328 328 326 325 324 323 322 320 319 317 315 314 312 311 310 309 307 305 303 302 302 302 301 299 299 301 301 302 304 307 307
296 305 310 312 313 310 308 308 312 319 325 328 328 328 328 326 324 322 320 318 317 315 315 315 313 314 313 311 309 308 308 306 303 302 302 302 303 303 304 306 307 305
298 306 308 310 310 307 305 307 311 317 322 326 328 330 330 328 326 324 322 320 318 316 315 314 313 313 312 310 309 309 307 306 304 304 303 303 303 304 306 308 307 304
301 306 308 310 308 304 303 306 309 313 317 322 327 330 331 330 328 326 323 320 317 315 313 312 312 313 312 310 309 307 304 304 305 306 305 304 303 304 305 307 307 303
303 306 308 308 305 302 303 306 310 312 315 321 327 330 330 329 329 327 323 318 315 313 312 311 312 313 312 310 308 307 305 303 303 305 305 304 304 304 305 306 305 301
302 303 306 306 304 302 304 308 311 313 315 319 323 325 327 328 328 326 322 317 313 312 313 313 313 314 312 308 307 306 304 301 301 303 303 303 304 305 306 307 305 303
301 303 304 306 307 307 308 309 310 312 315 316 316 318 323 326 325 324 322 319 313 312 313 315 315 316 315 311 308 306 303 300 300 301 302 303 305 306 307 306 306 309
304 304 304 304 306 310 311 310 311 311 312 314 314 315 319 321 321 321 322 320 315 311 312 313 314 317 318 315 310 305 302 300 299 300 302 304 306 306 306 305 305 308
304 304 304 304 307 312 313 311 310 310 311 314 314 313 315 318 319 319 320 320 315 309 309 310 311 314 317 317 312 304 299 297 296 298 301 303 304 306 305 304 303 304
304 304 306 306 309 313 312 311 310 310 313 315 313 309 311 315 317 318 318 317 313 307 306 308 309 311 313 315 312 304 298 296 296 299 302 303 303 304 303 302 302 303
301 302 305 306 308 309 310 311 310 310 313 315 310 307 310 314 316 317 316 314 310 307 306 306 306 307 309 311 310 304 297 295 296 300 303 302 302 301 300 301 303 305
300 302 305 306 306 308 310 309 308 308 312 312 308 307 311 313 314 314 314 311 305 302 301 298 298 303 305 306 305 301 297 294 296 299 300 299 300 300 300 302 304 306